Regional Weather Roundup
Issued by NWS

Home | Current Version | Previous Version | Text Only | Print | Product List | Glossary On
Versions: 1 2 3 4 5 6 7 8 9 10 11 12 13 14 15 16 17 18 19 20 21 22 23 24 25 26 27 28 29 30 31 32 33 34 35 36 37 38 39 40 41 42 43 44 45 46 47 48 49 50
000
ASUS43 KDTX 202310
RWRMI
MICHIGAN HOURLY REGIONAL WEATHER ROUNDUP
NATIONAL WEATHER SERVICE DETROIT/PONTIAC MI
700 PM EDT FRI APR 20 2018

NOTE: "FAIR" INDICATES FEW OR NO CLOUDS BELOW 12,000 FEET WITH NO
SIGNIFICANT WEATHER AND/OR OBSTRUCTION TO VISIBILITY.

MIZ047>049-052>055-059>063-066>070-074>076-081>083-210000-
SOUTHEAST LOWER MICHIGAN

CITY           SKY/WX    TMP DP  RH WIND       PRES   REMARKS
ADRIAN         FAIR      57  17  21 VRB6      30.43S
ALMA           FAIR      57  20  24 CALM      30.42F
ANN ARBOR      FAIR      56  17  21 NW9       30.43S
BAD AXE        FAIR      50   4  15 NE5       30.45S
CARO           FAIR      52  19  26 N3        30.43F
DETROIT CITY   FAIR      51  26  37 E10       30.45R
DETROIT        FAIR      54  25  32 SE9       30.44R
FLINT          FAIR      53  20  27 SE3       30.44
GROSSE ILE     FAIR      46  31  56 S5        30.45R
HILLSDALE      FAIR      55  16  21 N5        30.42S
HOWELL         FAIR      53  17  24 NE3       30.43S

CITY           SKY/WX    TMP DP  RH WIND       PRES   REMARKS
JACKSON        FAIR      57  15  19 N8        30.42F
LAMBERTVILLE   FAIR      57  19  22 NE6       30.43S
LANSING        FAIR      55  19  24 VRB3      30.43F
LAPEER         FAIR      51  15  23 CALM      30.44F
MASON          FAIR      56  11  16 CALM      30.43S
MONROE         FAIR      52  26  36 E9        30.43S
MT. CLEMENS    SUNNY     48  33  55 NE13      30.44R
PONTIAC        FAIR      53  17  24 NW8       30.43S
PORT HOPE        N/A     40  24  53 E7        30.45F
PORT HURON     FAIR      43  19  39 NE7       30.47S
TRI CITIES     FAIR      55  28  35 E10       30.43S
MIDLAND        FAIR      54  32  42 E8        30.42R
TROY           FAIR      55  16  20 N6        30.46R
SAGINAW HB     FAIR      54  27  35 E8        30.43R
$$
MIZ043>046-050>051-056>058-064>065-071>073-077>080-210000-
SOUTHWEST LOWER MICHIGAN

CITY           SKY/WX    TMP DP  RH WIND       PRES   REMARKS
BATTLE CREEK   FAIR      59  18  20 NE3       30.42F
BENTON HARBOR  FAIR      49  11  21 NW7       30.47S
BIG RAPIDS     FAIR      55   7  14 N6        30.41F
COLDWATER      FAIR      57  19  23 CALM      30.43R
FREMONT        FAIR      53   2  13 NW9       30.44S
HOLLAND        FAIR      50  18  28 NW7       30.47S
GRAND RAPIDS   PTSUNNY   55  24  30 W12       30.43S
IONIA          FAIR      57  17  21 E3        30.41F
KALAMAZOO      FAIR      59  17  19 CALM      30.43S
LUDINGTON      FAIR      47  17  30 W3        30.46F
MARSHALL       FAIR      56  14  19 CALM      30.42F
MOUNT PLEASANT FAIR      57  22  26 CALM      30.42S
MUSKEGON       FAIR      49  12  22 W9        30.47S
SOUTH HAVEN    FAIR      49   9  20 N6        30.47S
$$
MIZ016>042-210000-
NORTHERN LOWER MICHIGAN

CITY           SKY/WX    TMP DP  RH WIND       PRES   REMARKS
ALPENA         FAIR      42  24  49 SE8       30.44S
BEAVER ISLAND  FAIR      45  14  28 SW9       30.44F
BELLAIRE       FAIR      50   5  16 NW5       30.45F
CADILLAC       FAIR      51  14  23 NW3       30.42S
CHARLEVOIX     FAIR      45  18  34 W7        30.47F
FRANKFORT      FAIR      47  12  24 SW6       30.46F
GAYLORD        FAIR      48  14  25 W5        30.43S
GRAYLING       FAIR      48  15  27 NW7       30.42S
HARBOR SPRINGS FAIR      38  26  61 CALM      30.45S
HOUGHTON LAKE  FAIR      53  15  22 N6        30.43S
MANISTEE       FAIR      48  11  22 W9        30.46F
OSCODA         FAIR      41  19  40 E3        30.46R
PELLSTON       FAIR      49  14  24 W6        30.43F
ROGERS CITY    FAIR      45  15  29 CALM      30.44S
TRAVERSE CITY  PTSUNNY   46  23  40 CALM      30.44F
$$
MIZ007>008-015-210000-
EASTERN UPPER MICHIGAN

CITY           SKY/WX    TMP DP  RH WIND       PRES   REMARKS
KINROSS        FAIR      47  16  29 NW8       30.42S
MACKINAC ISLAN FAIR      44  16  32 W7        30.43F
NEWBERRY       FAIR      48  15  27 CALM      30.41S
S. S. MARIE    FAIR      50  17  27 NW8       30.41F
MUNISING         N/A     40  26  57 CALM      30.40F
$$
MIZ004>006-011>014-085-210000-
CENTRAL UPPER MICHIGAN

CITY           SKY/WX    TMP DP  RH WIND       PRES   REMARKS
MANISTIQUE     FAIR      41  27  58 S10G17    30.43F
ESCANABA       FAIR      49  16  26 S12       30.40F
MENOMINEE      FAIR      51  16  24 SW14      30.41F
SAWYER-GWINN   SUNNY     50  14  23 NE7       30.39F
$$
MIZ001>003-009>011-084-210000-
WESTERN UPPER MICHIGAN

CITY           SKY/WX    TMP DP  RH WIND       PRES   REMARKS
IRON MOUNTAIN  FAIR      59  14  17 NE6       30.35F
HOUGHTON       FAIR      48  17  29 E7        30.39R
COPPER HARBOR    N/A     41  24  51 CALM      30.41S
IRONWOOD       FAIR      53  17  24 NW7       30.38S
$$

ABBREVIATIONS USED IN REMARKS
   TC - TEMPERATURE IN CELSIUS
  WCI - WIND CHILL INDEX
   HX - HEAT INDEX
  VSB - VISIBILITY





USA.gov is the U.S. government's official web portal to all federal, state and local government web resources and services.